Location: Alafon
(8.4500°N, 4.2333°E)
Time: 02:22:28
(UTC+00:00)

Vanguard 2 - Pass Details

Date: 11 August 2021
Orbit: 553 x 2937 km, 32.9° (Epoch: 27 September)

Event Time Altitude Azimuth Distance (km) Brightness Sun altitude
Rises 11:35:28 0° 250° (WSW) 4,571 11.4 82.6°
Reaches altitude 10° 11:40:40 10° 225° (SW) 4,113 11.3 83.1°
Maximum altitude 11:45:38 14° 199° (SSW) 4,267 11.4 83.3°
Drops below altitude 10° 11:51:31 10° 174° (S) 5,014 11.7 83.3°
Sets 11:59:42 0° 152° (SSE) 6,492 12.2 82.8°
